Time,TemperatureF,DewpointF,PressureIn,WindDirection,WindDirectionDegrees,WindSpeedMPH,WindSpeedGustMPH,Humidity,HourlyPrecipIn,Conditions,Clouds,dailyrainin,SoftwareType,DateUTC
2013-10-08 00:04:00,64.2,44.1,30.08,SSE,152,3.0,5.0,48,0.00,,,0.00,Wunderground v.1.15,2013-10-08 05:04:00,
2013-10-08 00:10:00,64.4,44.3,30.08,SE,145,3.0,5.0,48,0.00,,,0.00,Wunderground v.1.15,2013-10-08 05:10:00,
2013-10-08 00:16:00,64.7,44.0,30.08,SE,136,4.0,5.0,47,0.00,,,0.00,Wunderground v.1.15,2013-10-08 05:16:00,
2013-10-08 00:22:00,64.8,44.1,30.07,SSE,153,4.0,5.0,47,0.00,,,0.00,Wunderground v.1.15,2013-10-08 05:22:00,
2013-10-08 00:28:00,64.7,44.0,30.07,SE,141,3.0,5.0,47,0.00,,,0.00,Wunderground v.1.15,2013-10-08 05:28:00,
2013-10-08 00:34:00,64.8,44.1,30.07,SE,141,3.0,5.0,47,0.00,,,0.00,Wunderground v.1.15,2013-10-08 05:34:00,
2013-10-08 00:40:00,64.8,44.1,30.07,SSE,160,3.0,5.0,47,0.00,,,0.00,Wunderground v.1.15,2013-10-08 05:40:00,
2013-10-08 00:46:00,64.6,43.9,30.07,SE,141,3.0,5.0,47,0.00,,,0.00,Wunderground v.1.15,2013-10-08 05:46:00,
2013-10-08 00:52:00,64.5,43.8,30.07,SSE,148,3.0,5.0,47,0.00,,,0.00,Wunderground v.1.15,2013-10-08 05:52:00,
2013-10-08 00:58:00,64.7,44.0,30.07,SE,139,4.0,5.0,47,0.00,,,0.00,Wunderground v.1.15,2013-10-08 05:58:00,
2013-10-08 01:04:00,64.6,43.9,30.07,SSE,154,4.0,5.0,47,0.00,,,0.00,Wunderground v.1.15,2013-10-08 06:04:00,
2013-10-08 01:10:00,64.5,43.8,30.07,SE,144,4.0,5.0,47,0.00,,,0.00,Wunderground v.1.15,2013-10-08 06:10:00,
2013-10-08 01:16:00,64.6,43.3,30.07,SSE,147,4.0,5.0,46,0.00,,,0.00,Wunderground v.1.15,2013-10-08 06:16:00,
2013-10-08 01:22:00,64.5,43.8,30.07,SSE,162,4.0,5.0,47,0.00,,,0.00,Wunderground v.1.15,2013-10-08 06:22:00,
2013-10-08 01:28:00,64.2,43.5,30.07,SSE,155,4.0,5.0,47,0.00,,,0.00,Wunderground v.1.15,2013-10-08 06:28:00,
2013-10-08 01:34:00,64.1,43.4,30.06,SSE,162,4.0,5.0,47,0.00,,,0.00,Wunderground v.1.15,2013-10-08 06:34:00,
2013-10-08 01:40:00,64.3,43.6,30.06,SSE,148,4.0,5.0,47,0.00,,,0.00,Wunderground v.1.15,2013-10-08 06:40:00,
2013-10-08 01:46:00,64.4,43.2,30.06,SSE,150,4.0,5.0,46,0.00,,,0.00,Wunderground v.1.15,2013-10-08 06:46:00,
2013-10-08 01:52:00,64.3,43.1,30.06,SSE,155,4.0,5.0,46,0.00,,,0.00,Wunderground v.1.15,2013-10-08 06:52:00,
2013-10-08 01:58:00,64.2,43.5,30.06,SE,145,4.0,5.0,47,0.00,,,0.00,Wunderground v.1.15,2013-10-08 06:58:00,
2013-10-08 02:06:00,63.7,43.6,30.06,South,179,3.0,5.0,48,0.00,,,0.00,Wunderground v.1.15,2013-10-08 07:06:00,
2013-10-08 02:12:00,63.2,43.2,30.06,South,169,3.0,5.0,48,0.00,,,0.00,Wunderground v.1.15,2013-10-08 07:12:00,
2013-10-08 02:18:00,62.8,43.3,30.07,SSE,156,3.0,5.0,49,0.00,,,0.00,Wunderground v.1.15,2013-10-08 07:18:00,
2013-10-08 02:24:00,62.3,43.4,30.06,SSE,162,3.0,5.0,50,0.00,,,0.00,Wunderground v.1.15,2013-10-08 07:24:00,
2013-10-08 02:30:00,62.5,43.1,30.06,SSE,159,3.0,5.0,49,0.00,,,0.00,Wunderground v.1.15,2013-10-08 07:30:00,
2013-10-08 02:36:00,63.0,42.4,30.06,South,169,3.0,5.0,47,0.00,,,0.00,Wunderground v.1.15,2013-10-08 07:36:00,
2013-10-08 02:42:00,62.8,42.8,30.06,SSE,158,3.0,5.0,48,0.00,,,0.00,Wunderground v.1.15,2013-10-08 07:42:00,
2013-10-08 02:48:00,62.9,42.4,30.06,SE,139,2.0,5.0,47,0.00,,,0.00,Wunderground v.1.15,2013-10-08 07:48:00,
2013-10-08 02:54:00,63.1,43.1,30.06,SSW,192,2.0,5.0,48,0.00,,,0.00,Wunderground v.1.15,2013-10-08 07:54:00,
2013-10-08 03:00:00,63.0,42.4,30.06,SE,144,2.0,5.0,47,0.00,,,0.00,Wunderground v.1.15,2013-10-08 08:00:00,
2013-10-08 03:06:00,62.8,42.3,30.06,SE,146,2.0,5.0,47,0.00,,,0.00,Wunderground v.1.15,2013-10-08 08:06:00,
2013-10-08 03:12:00,62.6,42.6,30.06,SSE,156,2.0,5.0,48,0.00,,,0.00,Wunderground v.1.15,2013-10-08 08:12:00,
2013-10-08 03:18:00,62.4,42.4,30.06,SSE,154,2.0,5.0,48,0.00,,,0.00,Wunderground v.1.15,2013-10-08 08:18:00,
2013-10-08 03:24:00,62.3,42.3,30.06,SSE,159,2.0,5.0,48,0.00,,,0.00,Wunderground v.1.15,2013-10-08 08:24:00,
2013-10-08 03:30:00,62.5,42.5,30.06,SSE,155,2.0,5.0,48,0.00,,,0.00,Wunderground v.1.15,2013-10-08 08:30:00,
2013-10-08 03:36:00,62.5,42.5,30.05,SSE,155,2.0,5.0,48,0.00,,,0.00,Wunderground v.1.15,2013-10-08 08:36:00,
2013-10-08 03:42:00,62.6,42.6,30.05,SSE,147,2.0,5.0,48,0.00,,,0.00,Wunderground v.1.15,2013-10-08 08:42:00,
2013-10-08 03:48:00,63.0,42.4,30.05,SE,141,2.0,5.0,47,0.00,,,0.00,Wunderground v.1.15,2013-10-08 08:48:00,
2013-10-08 03:54:00,63.4,42.2,30.05,SE,141,3.0,5.0,46,0.00,,,0.00,Wunderground v.1.15,2013-10-08 08:54:00,
2013-10-08 04:00:00,63.5,42.9,30.05,SE,141,3.0,3.0,47,0.00,,,0.00,Wunderground v.1.15,2013-10-08 09:00:00,
2013-10-08 04:06:00,63.2,42.6,30.05,SSE,156,2.0,5.0,47,0.00,,,0.00,Wunderground v.1.15,2013-10-08 09:06:00,
2013-10-08 04:12:00,62.9,42.9,30.05,SE,145,3.0,5.0,48,0.00,,,0.00,Wunderground v.1.15,2013-10-08 09:12:00,
2013-10-08 04:18:00,62.7,42.7,30.05,SSE,158,3.0,5.0,48,0.00,,,0.00,Wunderground v.1.15,2013-10-08 09:18:00,
2013-10-08 04:24:00,62.6,42.6,30.05,SSE,149,4.0,5.0,48,0.00,,,0.00,Wunderground v.1.15,2013-10-08 09:24:00,
2013-10-08 04:30:00,62.5,42.5,30.05,SSE,160,4.0,4.0,48,0.00,,,0.00,Wunderground v.1.15,2013-10-08 09:30:00,
2013-10-08 04:36:00,62.5,42.5,30.05,SSE,164,4.0,5.0,48,0.00,,,0.00,Wunderground v.1.15,2013-10-08 09:36:00,
2013-10-08 04:42:00,62.2,42.8,30.05,SE,135,4.0,5.0,49,0.00,,,0.00,Wunderground v.1.15,2013-10-08 09:42:00,
2013-10-08 04:48:00,62.3,42.3,30.04,SE,144,4.0,5.0,48,0.00,,,0.00,Wunderground v.1.15,2013-10-08 09:48:00,
2013-10-08 04:54:00,62.1,42.7,30.04,SSE,148,4.0,5.0,49,0.00,,,0.00,Wunderground v.1.15,2013-10-08 09:54:00,
2013-10-08 05:00:00,62.1,42.2,30.05,SE,129,3.0,5.0,48,0.00,,,0.00,Wunderground v.1.15,2013-10-08 10:00:00,
2013-10-08 05:06:00,62.2,42.3,30.05,SE,143,4.0,5.0,48,0.00,,,0.00,Wunderground v.1.15,2013-10-08 10:06:00,
2013-10-08 05:12:00,62.0,42.6,30.05,SE,141,3.0,5.0,49,0.00,,,0.00,Wunderground v.1.15,2013-10-08 10:12:00,
2013-10-08 05:18:00,61.8,42.4,30.04,SSE,154,3.0,5.0,49,0.00,,,0.00,Wunderground v.1.15,2013-10-08 10:18:00,
2013-10-08 05:24:00,61.7,42.9,30.04,SSE,150,3.0,5.0,50,0.00,,,0.00,Wunderground v.1.15,2013-10-08 10:24:00,
2013-10-08 05:30:00,61.2,42.9,30.05,SSE,158,3.0,5.0,51,0.00,,,0.00,Wunderground v.1.15,2013-10-08 10:30:00,
2013-10-08 05:36:00,60.6,42.9,30.05,SSE,162,2.0,5.0,52,0.00,,,0.00,Wunderground v.1.15,2013-10-08 10:36:00,
2013-10-08 05:42:00,60.2,43.0,30.05,SSE,147,3.0,5.0,53,0.00,,,0.00,Wunderground v.1.15,2013-10-08 10:42:00,
2013-10-08 05:48:00,60.0,42.8,30.05,SSE,166,2.0,5.0,53,0.00,,,0.00,Wunderground v.1.15,2013-10-08 10:48:00,
2013-10-08 05:54:00,59.8,43.1,30.05,SSE,159,2.0,5.0,54,0.00,,,0.00,Wunderground v.1.15,2013-10-08 10:54:00,
2013-10-08 06:00:00,59.6,42.9,30.06,South,183,3.0,4.0,54,0.00,,,0.00,Wunderground v.1.15,2013-10-08 11:00:00,
2013-10-08 06:06:00,59.8,43.1,30.06,South,177,4.0,4.0,54,0.00,,,0.00,Wunderground v.1.15,2013-10-08 11:06:00,
2013-10-08 06:12:00,60.1,42.9,30.05,South,173,4.0,4.0,53,0.00,,,0.00,Wunderground v.1.15,2013-10-08 11:12:00,
2013-10-08 06:18:00,60.3,43.1,30.06,SSE,155,4.0,5.0,53,0.00,,,0.00,Wunderground v.1.15,2013-10-08 11:18:00,
2013-10-08 06:24:00,60.2,43.0,30.05,SSE,166,3.0,4.0,53,0.00,,,0.00,Wunderground v.1.15,2013-10-08 11:24:00,
2013-10-08 06:30:00,60.1,42.9,30.06,South,186,3.0,3.0,53,0.00,,,0.00,Wunderground v.1.15,2013-10-08 11:30:00,
2013-10-08 06:36:00,60.2,43.0,30.06,South,170,3.0,4.0,53,0.00,,,0.00,Wunderground v.1.15,2013-10-08 11:36:00,
2013-10-08 06:42:00,60.2,43.0,30.05,SSW,200,3.0,4.0,53,0.00,,,0.00,Wunderground v.1.15,2013-10-08 11:42:00,
2013-10-08 06:48:00,60.2,43.0,30.06,SSE,165,3.0,4.0,53,0.00,,,0.00,Wunderground v.1.15,2013-10-08 11:48:00,
2013-10-08 06:54:00,60.1,43.4,30.06,SSW,210,3.0,4.0,54,0.00,,,0.00,Wunderground v.1.15,2013-10-08 11:54:00,
2013-10-08 07:00:00,60.0,43.3,30.06,South,188,3.0,4.0,54,0.00,,,0.00,Wunderground v.1.15,2013-10-08 12:00:00,
2013-10-08 07:06:00,60.0,43.3,30.06,SSW,203,3.0,4.0,54,0.00,,,0.00,Wunderground v.1.15,2013-10-08 12:06:00,
2013-10-08 07:12:00,60.1,43.4,30.06,SW,222,3.0,4.0,54,0.00,,,0.00,Wunderground v.1.15,2013-10-08 12:12:00,
2013-10-08 07:18:00,60.0,43.3,30.06,South,186,3.0,5.0,54,0.00,,,0.00,Wunderground v.1.15,2013-10-08 12:18:00,
2013-10-08 07:24:00,59.9,43.7,30.06,SSW,210,3.0,4.0,55,0.00,,,0.00,Wunderground v.1.15,2013-10-08 12:24:00,
2013-10-08 07:30:00,59.9,43.7,30.06,South,181,3.0,4.0,55,0.00,,,0.00,Wunderground v.1.15,2013-10-08 12:30:00,
2013-10-08 07:36:00,60.1,43.4,30.06,South,187,4.0,6.0,54,0.00,,,0.00,Wunderground v.1.15,2013-10-08 12:36:00,
2013-10-08 07:42:00,60.2,43.5,30.06,SSW,195,4.0,4.0,54,0.00,,,0.00,Wunderground v.1.15,2013-10-08 12:42:00,
2013-10-08 07:48:00,60.0,43.8,30.06,South,169,4.0,4.0,55,0.00,,,0.00,Wunderground v.1.15,2013-10-08 12:48:00,
2013-10-08 07:54:00,59.8,44.1,30.06,SSE,162,3.0,4.0,56,0.00,,,0.00,Wunderground v.1.15,2013-10-08 12:54:00,
2013-10-08 08:00:00,60.1,43.9,30.06,South,170,3.0,4.0,55,0.00,,,0.00,Wunderground v.1.15,2013-10-08 13:00:00,
2013-10-08 08:06:00,60.5,44.2,30.06,SSE,162,3.0,4.0,55,0.00,,,0.00,Wunderground v.1.15,2013-10-08 13:06:00,
2013-10-08 08:12:00,61.2,44.9,30.06,SSE,160,3.0,4.0,55,0.00,,,0.00,Wunderground v.1.15,2013-10-08 13:12:00,
2013-10-08 08:18:00,61.6,44.8,30.06,SSE,167,3.0,4.0,54,0.00,,,0.00,Wunderground v.1.15,2013-10-08 13:18:00,
2013-10-08 08:24:00,62.0,45.2,30.07,SSE,167,3.0,4.0,54,0.00,,,0.00,Wunderground v.1.15,2013-10-08 13:24:00,
2013-10-08 08:30:00,62.5,45.1,30.07,SSE,167,3.0,4.0,53,0.00,,,0.00,Wunderground v.1.15,2013-10-08 13:30:00,
2013-10-08 08:36:00,63.0,45.6,30.07,South,170,3.0,4.0,53,0.00,,,0.00,Wunderground v.1.15,2013-10-08 13:36:00,
2013-10-08 08:42:00,63.5,46.1,30.07,SSE,166,3.0,4.0,53,0.00,,,0.00,Wunderground v.1.15,2013-10-08 13:42:00,
2013-10-08 08:48:00,64.1,46.1,30.07,SSE,159,3.0,4.0,52,0.00,,,0.00,Wunderground v.1.15,2013-10-08 13:48:00,
2013-10-08 08:54:00,64.7,46.7,30.07,South,174,3.0,5.0,52,0.00,,,0.00,Wunderground v.1.15,2013-10-08 13:54:00,
2013-10-08 09:00:00,65.2,46.6,30.07,SW,217,3.0,4.0,51,0.00,,,0.00,Wunderground v.1.15,2013-10-08 14:00:00,
2013-10-08 09:06:00,65.7,47.1,30.07,South,173,3.0,4.0,51,0.00,,,0.00,Wunderground v.1.15,2013-10-08 14:06:00,
2013-10-08 09:12:00,66.3,48.1,30.07,South,169,3.0,4.0,52,0.00,,,0.00,Wunderground v.1.15,2013-10-08 14:12:00,
2013-10-08 09:18:00,66.9,48.2,30.07,SE,139,3.0,5.0,51,0.00,,,0.00,Wunderground v.1.15,2013-10-08 14:18:00,
2013-10-08 09:24:00,67.4,48.6,30.07,South,170,4.0,5.0,51,0.00,,,0.00,Wunderground v.1.15,2013-10-08 14:24:00,
2013-10-08 09:30:00,68.2,49.4,30.07,South,183,4.0,5.0,51,0.00,,,0.00,Wunderground v.1.15,2013-10-08 14:30:00,
2013-10-08 09:36:00,68.7,49.3,30.07,SSW,193,4.0,8.0,50,0.00,,,0.00,Wunderground v.1.15,2013-10-08 14:36:00,
2013-10-08 09:42:00,69.3,48.2,30.07,SSE,155,5.0,7.0,47,0.00,,,0.00,Wunderground v.1.15,2013-10-08 14:42:00,
2013-10-08 09:48:00,69.8,48.7,30.08,South,170,5.0,7.0,47,0.00,,,0.00,Wunderground v.1.15,2013-10-08 14:48:00,
2013-10-08 09:54:00,70.3,47.9,30.08,SSE,163,5.0,7.0,45,0.00,,,0.00,Wunderground v.1.15,2013-10-08 14:54:00,
2013-10-08 10:00:00,70.7,47.7,30.08,SSE,159,6.0,9.0,44,0.00,,,0.00,Wunderground v.1.15,2013-10-08 15:00:00,
2013-10-08 10:06:00,71.1,47.5,30.08,South,174,6.0,9.0,43,0.00,,,0.00,Wunderground v.1.15,2013-10-08 15:06:00,
2013-10-08 10:12:00,71.6,47.9,30.08,SSE,152,6.0,8.0,43,0.00,,,0.00,Wunderground v.1.15,2013-10-08 15:12:00,
2013-10-08 10:18:00,71.8,47.5,30.07,South,173,7.0,12.0,42,0.00,,,0.00,Wunderground v.1.15,2013-10-08 15:18:00,
2013-10-08 10:24:00,72.3,47.9,30.07,South,188,7.0,7.0,42,0.00,,,0.00,Wunderground v.1.15,2013-10-08 15:24:00,
2013-10-08 10:30:00,72.9,47.8,30.07,SE,143,6.0,6.0,41,0.00,,,0.00,Wunderground v.1.15,2013-10-08 15:30:00,
2013-10-08 10:36:00,73.1,46.7,30.07,SE,143,7.0,11.0,39,0.00,,,0.00,Wunderground v.1.15,2013-10-08 15:36:00,
2013-10-08 10:42:00,73.1,46.7,30.07,South,183,8.0,8.0,39,0.00,,,0.00,Wunderground v.1.15,2013-10-08 15:42:00,
2013-10-08 10:48:00,73.3,46.2,30.07,SE,143,9.0,14.0,38,0.00,,,0.00,Wunderground v.1.15,2013-10-08 15:48:00,
2013-10-08 10:54:00,73.4,46.9,30.07,South,186,9.0,10.0,39,0.00,,,0.00,Wunderground v.1.15,2013-10-08 15:54:00,
2013-10-08 11:00:00,73.7,46.5,30.07,SSE,151,8.0,8.0,38,0.00,,,0.00,Wunderground v.1.15,2013-10-08 16:00:00,
2013-10-08 11:06:00,74.1,47.6,30.07,SSW,204,8.0,13.0,39,0.00,,,0.00,Wunderground v.1.15,2013-10-08 16:06:00,
2013-10-08 11:12:00,74.8,47.5,30.07,SW,226,7.0,10.0,38,0.00,,,0.00,Wunderground v.1.15,2013-10-08 16:12:00,
2013-10-08 11:18:00,74.9,46.9,30.07,SE,137,7.0,10.0,37,0.00,,,0.00,Wunderground v.1.15,2013-10-08 16:18:00,
2013-10-08 11:24:00,74.7,46.0,30.07,SSE,157,9.0,10.0,36,0.00,,,0.00,Wunderground v.1.15,2013-10-08 16:24:00,
2013-10-08 11:30:00,75.1,47.0,30.06,SW,224,8.0,8.0,37,0.00,,,0.00,Wunderground v.1.15,2013-10-08 16:30:00,
2013-10-08 11:36:00,75.4,47.3,30.07,SSE,155,7.0,12.0,37,0.00,,,0.00,Wunderground v.1.15,2013-10-08 16:36:00,
2013-10-08 11:42:00,75.8,46.9,30.07,SSE,153,8.0,10.0,36,0.00,,,0.00,Wunderground v.1.15,2013-10-08 16:42:00,
2013-10-08 11:48:00,75.9,47.8,30.06,South,181,8.0,10.0,37,0.00,,,0.00,Wunderground v.1.15,2013-10-08 16:48:00,
2013-10-08 11:54:00,75.8,47.7,30.06,SSE,148,8.0,10.0,37,0.00,,,0.00,Wunderground v.1.15,2013-10-08 16:54:00,
2013-10-08 12:00:00,75.9,47.0,30.06,SSW,210,8.0,8.0,36,0.00,,,0.00,Wunderground v.1.15,2013-10-08 17:00:00,
2013-10-08 12:06:00,76.8,48.6,30.06,SSW,203,7.0,11.0,37,0.00,,,0.00,Wunderground v.1.15,2013-10-08 17:06:00,
2013-10-08 12:12:00,76.9,49.4,30.06,South,184,7.0,8.0,38,0.00,,,0.00,Wunderground v.1.15,2013-10-08 17:12:00,
2013-10-08 12:18:00,77.2,48.9,30.05,SSW,203,7.0,8.0,37,0.00,,,0.00,Wunderground v.1.15,2013-10-08 17:18:00,
2013-10-08 12:24:00,77.2,48.9,30.05,South,178,6.0,10.0,37,0.00,,,0.00,Wunderground v.1.15,2013-10-08 17:24:00,
2013-10-08 12:30:00,77.2,48.2,30.05,SE,124,7.0,8.0,36,0.00,,,0.00,Wunderground v.1.15,2013-10-08 17:30:00,
2013-10-08 12:36:00,76.9,47.9,30.05,SSE,160,8.0,9.0,36,0.00,,,0.00,Wunderground v.1.15,2013-10-08 17:36:00,
2013-10-08 12:42:00,77.0,48.7,30.05,South,179,7.0,8.0,37,0.00,,,0.00,Wunderground v.1.15,2013-10-08 17:42:00,
2013-10-08 12:48:00,77.3,48.3,30.05,SSW,200,7.0,8.0,36,0.00,,,0.00,Wunderground v.1.15,2013-10-08 17:48:00,
2013-10-08 12:54:00,77.8,48.7,30.04,SSW,210,6.0,7.0,36,0.00,,,0.00,Wunderground v.1.15,2013-10-08 17:54:00,
2013-10-08 13:00:00,78.3,49.1,30.04,SSW,204,6.0,9.0,36,0.00,,,0.00,Wunderground v.1.15,2013-10-08 18:00:00,
2013-10-08 13:06:00,78.2,48.3,30.04,SSW,200,7.0,9.0,35,0.00,,,0.00,Wunderground v.1.15,2013-10-08 18:06:00,
2013-10-08 13:12:00,78.3,47.6,30.03,South,183,8.0,9.0,34,0.00,,,0.00,Wunderground v.1.15,2013-10-08 18:12:00,
2013-10-08 13:18:00,78.5,49.3,30.03,South,179,7.0,9.0,36,0.00,,,0.00,Wunderground v.1.15,2013-10-08 18:18:00,
2013-10-08 13:24:00,78.5,47.0,30.02,South,173,6.0,9.0,33,0.00,,,0.00,Wunderground v.1.15,2013-10-08 18:24:00,
2013-10-08 13:30:00,78.8,49.6,30.02,SSE,164,8.0,8.0,36,0.00,,,0.00,Wunderground v.1.15,2013-10-08 18:30:00,
2013-10-08 13:36:00,79.0,49.0,30.02,South,177,7.0,8.0,35,0.00,,,0.00,Wunderground v.1.15,2013-10-08 18:36:00,
2013-10-08 13:42:00,79.3,48.5,30.01,South,170,7.0,12.0,34,0.00,,,0.00,Wunderground v.1.15,2013-10-08 18:42:00,
2013-10-08 13:48:00,78.8,49.6,30.01,SSW,212,8.0,12.0,36,0.00,,,0.00,Wunderground v.1.15,2013-10-08 18:48:00,
2013-10-08 13:54:00,79.6,49.5,30.01,SE,138,7.0,11.0,35,0.00,,,0.00,Wunderground v.1.15,2013-10-08 18:54:00,
2013-10-08 14:00:00,79.3,48.5,30.01,SSE,159,8.0,8.0,34,0.00,,,0.00,Wunderground v.1.15,2013-10-08 19:00:00,
2013-10-08 14:06:00,79.2,48.4,30.01,South,187,8.0,8.0,34,0.00,,,0.00,Wunderground v.1.15,2013-10-08 19:06:00,
2013-10-08 14:12:00,79.3,49.3,30.00,SSE,155,7.0,8.0,35,0.00,,,0.00,Wunderground v.1.15,2013-10-08 19:12:00,
2013-10-08 14:18:00,79.2,47.6,30.00,SW,229,7.0,8.0,33,0.00,,,0.00,Wunderground v.1.15,2013-10-08 19:18:00,
2013-10-08 14:24:00,79.7,48.8,30.00,SSW,212,5.0,9.0,34,0.00,,,0.00,Wunderground v.1.15,2013-10-08 19:24:00,
2013-10-08 14:30:00,80.3,49.4,30.00,SSW,198,5.0,6.0,34,0.00,,,0.00,Wunderground v.1.15,2013-10-08 19:30:00,
2013-10-08 14:36:00,80.5,48.7,29.99,ESE,117,6.0,9.0,33,0.00,,,0.00,Wunderground v.1.15,2013-10-08 19:36:00,
2013-10-08 14:42:00,80.6,48.8,29.99,SSE,160,6.0,9.0,33,0.00,,,0.00,Wunderground v.1.15,2013-10-08 19:42:00,
2013-10-08 14:48:00,80.5,47.9,29.99,South,183,8.0,9.0,32,0.00,,,0.00,Wunderground v.1.15,2013-10-08 19:48:00,
2013-10-08 14:54:00,80.2,48.5,29.99,South,179,7.0,10.0,33,0.00,,,0.00,Wunderground v.1.15,2013-10-08 19:54:00,
2013-10-08 15:00:00,80.0,49.1,29.98,SSW,212,8.0,8.0,34,0.00,,,0.00,Wunderground v.1.15,2013-10-08 20:00:00,
2013-10-08 15:06:00,80.1,47.6,29.98,SE,135,8.0,9.0,32,0.00,,,0.00,Wunderground v.1.15,2013-10-08 20:06:00,
2013-10-08 15:12:00,80.1,47.6,29.98,SSE,166,8.0,8.0,32,0.00,,,0.00,Wunderground v.1.15,2013-10-08 20:12:00,
2013-10-08 15:18:00,80.1,47.6,29.98,South,188,7.0,11.0,32,0.00,,,0.00,Wunderground v.1.15,2013-10-08 20:18:00,
2013-10-08 15:24:00,80.1,48.4,29.98,SE,135,6.0,7.0,33,0.00,,,0.00,Wunderground v.1.15,2013-10-08 20:24:00,
2013-10-08 15:30:00,80.6,48.8,29.98,South,173,6.0,10.0,33,0.00,,,0.00,Wunderground v.1.15,2013-10-08 20:30:00,
2013-10-08 15:36:00,80.5,48.7,29.97,SSE,165,7.0,10.0,33,0.00,,,0.00,Wunderground v.1.15,2013-10-08 20:36:00,
2013-10-08 15:42:00,80.3,48.6,29.97,SSE,167,6.0,7.0,33,0.00,,,0.00,Wunderground v.1.15,2013-10-08 20:42:00,
2013-10-08 15:48:00,80.2,48.5,29.97,SSW,195,7.0,9.0,33,0.00,,,0.00,Wunderground v.1.15,2013-10-08 20:48:00,
2013-10-08 15:54:00,80.4,48.7,29.97,SSW,208,7.0,9.0,33,0.00,,,0.00,Wunderground v.1.15,2013-10-08 20:54:00,
2013-10-08 16:02:00,80.4,47.8,29.97,SSW,193,7.0,12.0,32,0.00,,,0.00,Wunderground v.1.15,2013-10-08 21:02:00,
2013-10-08 16:08:00,79.9,47.4,29.97,SSW,205,8.0,12.0,32,0.00,,,0.00,Wunderground v.1.15,2013-10-08 21:08:00,
2013-10-08 16:14:00,80.4,50.2,29.97,SE,128,7.0,8.0,35,0.00,,,0.00,Wunderground v.1.15,2013-10-08 21:14:00,
2013-10-08 16:20:00,80.4,48.7,29.97,SE,132,7.0,7.0,33,0.00,,,0.00,Wunderground v.1.15,2013-10-08 21:20:00,
2013-10-08 16:26:00,80.6,48.8,29.97,SSE,165,7.0,9.0,33,0.00,,,0.00,Wunderground v.1.15,2013-10-08 21:26:00,
2013-10-08 16:32:00,80.4,48.7,29.97,South,183,7.0,7.0,33,0.00,,,0.00,Wunderground v.1.15,2013-10-08 21:32:00,
2013-10-08 16:38:00,80.3,48.6,29.97,SE,143,6.0,8.0,33,0.00,,,0.00,Wunderground v.1.15,2013-10-08 21:38:00,
2013-10-08 16:44:00,80.0,48.3,29.97,SSE,150,7.0,7.0,33,0.00,,,0.00,Wunderground v.1.15,2013-10-08 21:44:00,
2013-10-08 16:50:00,80.4,50.2,29.97,South,174,6.0,7.0,35,0.00,,,0.00,Wunderground v.1.15,2013-10-08 21:50:00,
2013-10-08 16:56:00,80.3,47.7,29.97,SE,135,7.0,7.0,32,0.00,,,0.00,Wunderground v.1.15,2013-10-08 21:56:00,
2013-10-08 17:02:00,80.2,48.5,29.97,South,172,7.0,9.0,33,0.00,,,0.00,Wunderground v.1.15,2013-10-08 22:02:00,
2013-10-08 17:08:00,79.9,48.2,29.97,SSE,148,7.0,9.0,33,0.00,,,0.00,Wunderground v.1.15,2013-10-08 22:08:00,
2013-10-08 17:14:00,79.8,48.9,29.96,SSW,193,7.0,10.0,34,0.00,,,0.00,Wunderground v.1.15,2013-10-08 22:14:00,
2013-10-08 17:20:00,79.8,48.9,29.96,SE,139,7.0,8.0,34,0.00,,,0.00,Wunderground v.1.15,2013-10-08 22:20:00,
2013-10-08 17:26:00,79.9,49.8,29.96,SSE,160,6.0,8.0,35,0.00,,,0.00,Wunderground v.1.15,2013-10-08 22:26:00,
2013-10-08 17:32:00,79.8,48.9,29.96,SSW,210,6.0,6.0,34,0.00,,,0.00,Wunderground v.1.15,2013-10-08 22:32:00,
2013-10-08 17:38:00,79.6,48.8,29.96,SE,143,6.0,6.0,34,0.00,,,0.00,Wunderground v.1.15,2013-10-08 22:38:00,
2013-10-08 17:44:00,79.3,48.5,29.96,South,191,6.0,9.0,34,0.00,,,0.00,Wunderground v.1.15,2013-10-08 22:44:00,
2013-10-08 17:50:00,79.0,47.4,29.96,SSE,163,7.0,7.0,33,0.00,,,0.00,Wunderground v.1.15,2013-10-08 22:50:00,
2013-10-08 17:56:00,78.8,47.3,29.96,SE,137,7.0,8.0,33,0.00,,,0.00,Wunderground v.1.15,2013-10-08 22:56:00,
2013-10-08 18:02:00,78.6,47.9,29.96,SE,145,6.0,6.0,34,0.00,,,0.00,Wunderground v.1.15,2013-10-08 23:02:00,
2013-10-08 18:08:00,78.3,47.6,29.96,South,177,6.0,7.0,34,0.00,,,0.00,Wunderground v.1.15,2013-10-08 23:08:00,
2013-10-08 18:14:00,77.8,47.9,29.96,SSE,154,7.0,10.0,35,0.00,,,0.00,Wunderground v.1.15,2013-10-08 23:14:00,
2013-10-08 18:20:00,76.8,47.1,29.96,SE,145,7.0,7.0,35,0.00,,,0.00,Wunderground v.1.15,2013-10-08 23:20:00,
2013-10-08 18:26:00,76.0,47.8,29.96,SSE,158,6.0,7.0,37,0.00,,,0.00,Wunderground v.1.15,2013-10-08 23:26:00,
2013-10-08 18:32:00,75.2,47.8,29.96,SE,140,5.0,6.0,38,0.00,,,0.00,Wunderground v.1.15,2013-10-08 23:32:00,
2013-10-08 18:38:00,74.5,47.2,29.96,SE,146,5.0,6.0,38,0.00,,,0.00,Wunderground v.1.15,2013-10-08 23:38:00,
2013-10-08 18:44:00,74.4,47.8,29.96,SSE,158,4.0,5.0,39,0.00,,,0.00,Wunderground v.1.15,2013-10-08 23:44:00,
2013-10-08 18:50:00,73.9,47.4,29.96,SSE,153,4.0,5.0,39,0.00,,,0.00,Wunderground v.1.15,2013-10-08 23:50:00,
2013-10-08 18:56:00,73.5,47.7,29.96,SE,132,5.0,5.0,40,0.00,,,0.00,Wunderground v.1.15,2013-10-08 23:56:00,
2013-10-08 19:02:00,73.2,48.1,29.96,SSE,161,5.0,5.0,41,0.00,,,0.00,Wunderground v.1.15,2013-10-09 00:02:00,
2013-10-08 19:08:00,72.8,48.4,29.97,SE,127,4.0,5.0,42,0.00,,,0.00,Wunderground v.1.15,2013-10-09 00:08:00,
2013-10-08 19:14:00,72.4,48.0,29.96,SE,136,4.0,5.0,42,0.00,,,0.00,Wunderground v.1.15,2013-10-09 00:14:00,
2013-10-08 19:20:00,72.0,48.3,29.97,SE,134,4.0,5.0,43,0.00,,,0.00,Wunderground v.1.15,2013-10-09 00:20:00,
2013-10-08 19:26:00,71.7,48.0,29.97,ESE,112,4.0,5.0,43,0.00,,,0.00,Wunderground v.1.15,2013-10-09 00:26:00,
2013-10-08 19:32:00,71.4,47.7,29.97,SE,138,4.0,5.0,43,0.00,,,0.00,Wunderground v.1.15,2013-10-09 00:32:00,
2013-10-08 19:38:00,71.3,47.6,29.96,SE,135,5.0,6.0,43,0.00,,,0.00,Wunderground v.1.15,2013-10-09 00:38:00,
2013-10-08 19:44:00,71.1,48.1,29.96,SE,142,5.0,6.0,44,0.00,,,0.00,Wunderground v.1.15,2013-10-09 00:44:00,
2013-10-08 19:50:00,70.7,47.7,29.96,SE,146,5.0,5.0,44,0.00,,,0.00,Wunderground v.1.15,2013-10-09 00:50:00,
2013-10-08 19:56:00,70.3,47.9,29.96,SSE,148,4.0,5.0,45,0.00,,,0.00,Wunderground v.1.15,2013-10-09 00:56:00,
2013-10-08 20:02:00,69.9,48.7,29.97,SE,139,4.0,6.0,47,0.00,,,0.00,Wunderground v.1.15,2013-10-09 01:02:00,
2013-10-08 20:08:00,69.7,48.6,29.97,SE,134,4.0,6.0,47,0.00,,,0.00,Wunderground v.1.15,2013-10-09 01:08:00,
2013-10-08 20:14:00,69.5,48.9,29.97,SE,143,4.0,5.0,48,0.00,,,0.00,Wunderground v.1.15,2013-10-09 01:14:00,
2013-10-08 20:20:00,69.1,49.1,29.97,SE,144,4.0,5.0,49,0.00,,,0.00,Wunderground v.1.15,2013-10-09 01:20:00,
2013-10-08 20:26:00,68.8,49.4,29.97,SE,131,4.0,5.0,50,0.00,,,0.00,Wunderground v.1.15,2013-10-09 01:26:00,
2013-10-08 20:32:00,68.5,49.7,29.98,SE,132,4.0,4.0,51,0.00,,,0.00,Wunderground v.1.15,2013-10-09 01:32:00,
2013-10-08 20:38:00,68.3,49.5,29.97,SE,144,4.0,5.0,51,0.00,,,0.00,Wunderground v.1.15,2013-10-09 01:38:00,
2013-10-08 20:44:00,68.1,49.3,29.98,SSE,150,4.0,5.0,51,0.00,,,0.00,Wunderground v.1.15,2013-10-09 01:44:00,
2013-10-08 20:50:00,68.0,49.2,29.98,SE,145,4.0,5.0,51,0.00,,,0.00,Wunderground v.1.15,2013-10-09 01:50:00,
2013-10-08 20:56:00,68.0,49.2,29.98,SE,138,4.0,5.0,51,0.00,,,0.00,Wunderground v.1.15,2013-10-09 01:56:00,
2013-10-08 21:02:00,67.9,49.1,29.98,SE,132,5.0,5.0,51,0.00,,,0.00,Wunderground v.1.15,2013-10-09 02:02:00,
2013-10-08 21:08:00,67.7,48.9,29.98,South,172,5.0,5.0,51,0.00,,,0.00,Wunderground v.1.15,2013-10-09 02:08:00,
2013-10-08 21:14:00,67.5,48.7,29.98,SE,134,4.0,5.0,51,0.00,,,0.00,Wunderground v.1.15,2013-10-09 02:14:00,
2013-10-08 21:20:00,67.5,48.7,29.98,SSE,153,4.0,4.0,51,0.00,,,0.00,Wunderground v.1.15,2013-10-09 02:20:00,
2013-10-08 21:26:00,67.4,48.6,29.98,SSE,160,4.0,4.0,51,0.00,,,0.00,Wunderground v.1.15,2013-10-09 02:26:00,
2013-10-08 21:32:00,67.4,48.6,29.99,SE,145,5.0,5.0,51,0.00,,,0.00,Wunderground v.1.15,2013-10-09 02:32:00,
2013-10-08 21:38:00,67.3,48.0,29.98,SE,138,5.0,6.0,50,0.00,,,0.00,Wunderground v.1.15,2013-10-09 02:38:00,
2013-10-08 21:44:00,67.3,48.0,29.99,SE,139,5.0,5.0,50,0.00,,,0.00,Wunderground v.1.15,2013-10-09 02:44:00,
2013-10-08 21:50:00,67.3,48.0,29.99,SSE,150,4.0,4.0,50,0.00,,,0.00,Wunderground v.1.15,2013-10-09 02:50:00,
2013-10-08 21:56:00,67.3,48.0,29.99,SE,131,5.0,5.0,50,0.00,,,0.00,Wunderground v.1.15,2013-10-09 02:56:00,
2013-10-08 22:02:00,67.3,48.0,29.99,SSE,148,5.0,7.0,50,0.00,,,0.00,Wunderground v.1.15,2013-10-09 03:02:00,
2013-10-08 22:08:00,67.3,48.0,29.99,SE,129,5.0,7.0,50,0.00,,,0.00,Wunderground v.1.15,2013-10-09 03:08:00,
2013-10-08 22:14:00,66.9,48.2,29.99,SSE,153,5.0,5.0,51,0.00,,,0.00,Wunderground v.1.15,2013-10-09 03:14:00,
2013-10-08 22:20:00,66.6,48.4,29.99,SE,125,5.0,5.0,52,0.00,,,0.00,Wunderground v.1.15,2013-10-09 03:20:00,
2013-10-08 22:26:00,66.3,48.7,29.99,SE,145,4.0,5.0,53,0.00,,,0.00,Wunderground v.1.15,2013-10-09 03:26:00,
2013-10-08 22:32:00,66.0,48.4,29.99,ESE,114,4.0,4.0,53,0.00,,,0.00,Wunderground v.1.15,2013-10-09 03:32:00,
2013-10-08 22:38:00,65.7,48.6,29.99,SSE,148,4.0,5.0,54,0.00,,,0.00,Wunderground v.1.15,2013-10-09 03:38:00,
2013-10-08 22:44:00,65.7,49.1,29.98,SE,134,4.0,7.0,55,0.00,,,0.00,Wunderground v.1.15,2013-10-09 03:44:00,
2013-10-08 22:50:00,65.6,49.0,29.98,SE,135,4.0,4.0,55,0.00,,,0.00,Wunderground v.1.15,2013-10-09 03:50:00,
2013-10-08 22:56:00,65.5,48.9,29.98,SE,139,4.0,4.0,55,0.00,,,0.00,Wunderground v.1.15,2013-10-09 03:56:00,
2013-10-08 23:02:00,65.2,49.1,29.99,SSE,150,4.0,4.0,56,0.00,,,0.00,Wunderground v.1.15,2013-10-09 04:02:00,
2013-10-08 23:04:00,65.1,49.0,29.99,SE,138,4.0,4.0,56,0.00,,,0.00,Wunderground v.1.15,2013-10-09 04:04:00,
2013-10-08 23:06:00,65.0,48.9,29.99,SE,144,3.0,4.0,56,0.00,,,0.00,Wunderground v.1.15,2013-10-09 04:06:00,
2013-10-08 23:08:00,65.0,48.9,29.99,SE,145,4.0,4.0,56,0.00,,,0.00,Wunderground v.1.15,2013-10-09 04:08:00,
2013-10-08 23:10:00,64.9,49.3,29.99,SSE,160,4.0,4.0,57,0.00,,,0.00,Wunderground v.1.15,2013-10-09 04:10:00,
2013-10-08 23:12:00,64.8,49.2,29.99,SSE,148,4.0,4.0,57,0.00,,,0.00,Wunderground v.1.15,2013-10-09 04:12:00,
2013-10-08 23:18:00,64.7,49.1,29.99,SE,140,3.0,4.0,57,0.00,,,0.00,Wunderground v.1.15,2013-10-09 04:18:00,
2013-10-08 23:24:00,64.7,49.1,29.99,SE,134,4.0,4.0,57,0.00,,,0.00,Wunderground v.1.15,2013-10-09 04:24:00,
2013-10-08 23:30:00,64.7,49.1,29.99,South,174,4.0,5.0,57,0.00,,,0.00,Wunderground v.1.15,2013-10-09 04:30:00,
2013-10-08 23:36:00,64.6,49.0,29.99,SE,139,4.0,5.0,57,0.00,,,0.00,Wunderground v.1.15,2013-10-09 04:36:00,
2013-10-08 23:42:00,64.3,48.7,29.99,South,173,4.0,6.0,57,0.00,,,0.00,Wunderground v.1.15,2013-10-09 04:42:00,
2013-10-08 23:48:00,64.3,49.2,29.99,SE,139,4.0,6.0,58,0.00,,,0.00,Wunderground v.1.15,2013-10-09 04:48:00,
2013-10-08 23:54:00,64.3,49.2,29.98,SSE,151,4.0,4.0,58,0.00,,,0.00,Wunderground v.1.15,2013-10-09 04:54:00,